Flag for Greenland Weather past 2 weeks in Ittoqqortoormiit, Greenland

Now
48 °F

Sunny.


Feels Like: 40 °F
Forecast: 29 / 47 °F
Wind: 21 mph from East

Location: Scoresbysund

Current Time: Jul 4, 2015 at 12:49:32 AM

Latest Report: Jul 4, 2015 at 12:00 AM


Visibility: 31 mi

Pressure: 30.24 "Hg

Humidity: 49%

Dew point: 29 °F

Location of IttoqqortoormiitLocation

Historic Weather in Ittoqqortoormiit — Graph

°F

Ittoqqortoormiit temperature yesterday

Maximum temperature yesterday: 57 °F (at 3:00 PM)
Minimum temperature yesterday: 42 °F (at 12:00 AM)
Average temperature yesterday: 50 °F

Past Weeks' High & Low Weather Summary

 TemperatureHumidityPressure
High58 °F (Jun 26, 3:00 PM)100% (Jun 19, 2:00 AM)30.26 "Hg (Jun 19, 2:00 AM)
Low29 °F (Jun 22, 2:00 AM)23% (Jul 3, 3:00 PM)29.75 "Hg (Jun 19, 3:00 AM)
Average41 °F73%30.11 "Hg
* Reported Jun 18 11:00 PM — Jul 3 11:00 PM, Ittoqqortoormiit, Weather by CustomWeather, © 2015

Note: Actual official high and low records may vary slightly from our data, if they occured in-between our weather recording intervals... More about our weather records

Advertising

Ittoqqortoormiit weather history for previous 24 hours

 ConditionsComfort  
Time TempWeatherWind HumidityBarometerVisibility
11:00 PM
Fri, Jul 3
49 °FSunny.17 mph45%30.24 "Hg31 mi
10:00 PM50 °FSunny.17 mph43%30.24 "Hg31 mi
9:00 PM53 °FSunny.13 mph31%30.24 "Hg31 mi
8:00 PM52 °FSunny.14 mph34%30.24 "Hg31 mi
7:00 PM54 °FSunny.13 mph33%30.24 "Hg28 mi
6:00 PM56 °FSunny.12 mph26%30.23 "Hg28 mi
5:00 PM54 °FSunny.9 mph31%30.24 "Hg28 mi
4:00 PM53 °FSunny.13 mph35%30.24 "Hg31 mi
3:00 PM57 °FSunny.8 mph23%30.23 "Hg28 mi
2:00 PM56 °FSunny.6 mph27%30.24 "Hg28 mi
1:00 PM51 °FSunny.6 mph48%30.24 "Hg25 mi
12:00 PM49 °FSunny.13 mph50%30.24 "Hg22 mi
10:00 AM52 °FSunny.5 mph39%30.22 "Hg19 mi
9:00 AM51 °FSunny.8 mph34%30.22 "Hg31 mi
8:00 AM51 °FSunny.5 mph35%30.21 "Hg31 mi
7:00 AM49 °FSunny.9 mph39%30.21 "Hg31 mi
6:00 AM47 °FSunny.9 mph44%30.21 "Hg31 mi
5:00 AM44 °FSunny.8 mph52%30.20 "Hg31 mi
4:00 AM43 °FSunny.8 mph60%30.21 "Hg31 mi
2:00 AM43 °FSunny.9 mph65%30.21 "Hg31 mi
1:00 AM43 °FSunny.8 mph66%30.22 "Hg31 mi
12:00 AM42 °FSunny.8 mph64%30.22 "Hg31 mi
Weather by CustomWeather, © 2015

See weather overviewHow to use our weather pages